Rome, NY

8:21 PM EST on November 19, 2019 (GMT -0500)
Griffiss

Weather History for KRME - September, 2019

Change the Weather History Date:

Thursday, September 19, 2019

  Actual Average Record
Temperature  
Mean Temperature 57 °F -  
Max Temperature 73 °F 67 °F 83 °F (1983)
Min Temperature 42 °F 47 °F 32 °F (1996)
Degree Days  
Heating Degree Days 8    
Growing Degree Days 7 (Base 50)    
Moisture  
Dew Point 47 °F    
Average Humidity 74    
Maximum Humidity 100    
Minimum Humidity 42    
Precipitation  
Precipitation 0.00 in - - ()
Sea Level Pressure  
Sea Level Pressure 30.32 in    
Wind  
Wind Speed 4 mph (ESE)    
Max Wind Speed 8 mph    
Max Gust Speed -    
Visibility 10 miles    
Events      
Averages and records for this station are not official NWS values.
T = Trace of Precipitation, MM = Missing Value Source: NWS Daily Summary

Daily Weather History Graph

Daily Weather History Graph

Search for Another Location

Airport or City:

Astronomy

Sep. 19, 2019 Rise Set
Actual Time 6:45 AM EDT 7:04 PM EDT
Civil Twilight 6:16 AM EDT 7:33 PM EDT
Nautical Twilight 5:43 AM EDT 8:06 PM EDT
Astronomical Twilight 5:08 AM EDT 8:41 PM EDT
Moon 10:04 PM EDT (9/19) 11:54 AM EDT (9/19)
Length of Visible Light 13h 16m
Length of Day
12h 19m
Waning Gibbous, 74% of the Moon is Illuminated
Sep 19
Waning Gibbous
Sep 21
Last Quarter
Sep 28
New
Oct 5
First Quarter
Oct 13
Full

Hourly Weather History & Observations

Time (EDT) Temp. Windchill Dew Point Humidity Pressure Visibility Wind Dir Wind Speed Gust Speed Precip Events Conditions
12:53 AM 48.9 °F - 46.0 °F 90% 30.34 in 10.0 mi ESE 8.1 mph - N/A   Clear
1:53 AM 48.0 °F - 45.0 °F 89% 30.35 in 10.0 mi North 3.5 mph - N/A   Clear
3:53 AM 45.0 °F 43.5 °F 43.0 °F 93% 30.34 in 10.0 mi SSE 3.5 mph - N/A   Clear
4:53 AM 43.0 °F 40.3 °F 42.1 °F 97% 30.34 in 10.0 mi SE 4.6 mph - N/A   Clear
5:53 AM 42.1 °F 38.4 °F 42.1 °F 100% 30.35 in 10.0 mi SE 5.8 mph - N/A   Clear
6:53 AM 42.1 °F 40.2 °F 41.0 °F 96% 30.36 in 10.0 mi ESE 3.5 mph - N/A   Clear
7:53 AM 45.0 °F 42.6 °F 43.0 °F 93% 30.37 in 10.0 mi SSE 4.6 mph - N/A   Clear
8:53 AM 52.0 °F - 46.0 °F 80% 30.38 in 10.0 mi ESE 6.9 mph - N/A   Clear
9:53 AM 57.0 °F - 48.0 °F 72% 30.38 in 10.0 mi SSE 5.8 mph - N/A   Clear
10:53 AM 60.1 °F - 48.9 °F 67% 30.36 in 10.0 mi SE 3.5 mph - N/A   Clear
11:53 AM 64.0 °F - 50.0 °F 60% 30.35 in 10.0 mi Variable 3.5 mph - N/A   Clear
12:53 PM 68.0 °F - 48.0 °F 49% 30.32 in 10.0 mi Calm Calm - N/A   Clear
1:53 PM 69.1 °F - 46.9 °F 45% 30.31 in 10.0 mi Calm Calm - N/A   Clear
2:53 PM 72.0 °F - 48.9 °F 44% 30.29 in 10.0 mi Variable 3.5 mph - N/A   Clear
3:14 PM 71.1 °F - 46.9 °F 42% 30.29 in 10.0 mi Calm Calm - N/A   Clear
3:53 PM 72.0 °F - 48.0 °F 43% 30.28 in 10.0 mi NNE 4.6 mph - N/A   Clear
4:53 PM 72.0 °F - 48.9 °F 44% 30.28 in 10.0 mi Variable 3.5 mph - N/A   Clear
5:53 PM 71.1 °F - 50.0 °F 47% 30.27 in 10.0 mi Variable 3.5 mph - N/A   Clear
7:53 PM 57.9 °F - 53.1 °F 84% 30.28 in 10.0 mi ENE 3.5 mph - N/A   Clear
8:53 PM 57.0 °F - 51.1 °F 81% 30.29 in 10.0 mi SE 3.5 mph - N/A   Clear
9:53 PM 52.0 °F - 50.0 °F 93% 30.29 in 10.0 mi SE 3.5 mph - N/A   Clear
10:53 PM 52.0 °F - 50.0 °F 93% 30.29 in 10.0 mi Calm Calm - N/A   Clear
11:53 PM 51.1 °F - 48.9 °F 92% 30.27 in 10.0 mi ESE 4.6 mph - N/A   Clear